Regional Weather Roundup
Issued by NWS

Home | Current Version | Previous Version | Text Only | Print | Product List | Glossary On
Versions: 1 2 3 4 5 6 7 8 9 10 11 12 13 14 15 16 17 18 19 20 21 22 23 24 25 26 27 28 29 30 31 32 33 34 35 36 37 38 39 40 41 42 43 44 45 46 47 48 49 50
000
ASUS43 KBIS 260520
RWRND

NORTH DAKOTA REGIONAL WEATHER ROUNDUP
NATIONAL WEATHER SERVICE BISMARCK ND
1200 AM CDT SAT JUL 26 2014

NOTE: "FAIR" INDICATES FEW OR NO CLOUDS BELOW 12,000 FEET WITH NO
SIGNIFICANT WEATHER AND/OR OBSTRUCTIONS TO VISIBILITY.


NDZ001>003-009>011-017-260600-
NORTHWEST NORTH DAKOTA

CITY           SKY/WX    TMP DP  RH WIND       PRES   REMARKS
WILLISTON      CLEAR     61  50  67 N9        29.84R
MINOT          CLEAR     64  56  75 SE3       29.76F
MINOT AFB      CLEAR     62  60  94 S5        29.75F
$$

NDZ018>021-031>035-040>046-260600-
SOUTHWEST NORTH DAKOTA

CITY           SKY/WX    TMP DP  RH WIND       PRES   REMARKS
BISMARCK       CLEAR     60  55  83 SE7       29.81R
DICKINSON      CLEAR     66  52  60 SW10      29.84R
GARRISON         N/A     60  57  89 CALM      29.79R
HETTINGER ARPT CLEAR     62  50  64 S6        29.87S
$$

NDZ004>008-012>016-024-026-027-054-260600-
NORTHEAST NORTH DAKOTA

CITY           SKY/WX    TMP DP  RH WIND       PRES   REMARKS
GRAND FORKS    CLEAR     60  57  89 SW7       29.77S
GRND FRKS AFB  CLEAR     61  60  95 S6        29.79S
DEVILS LAKE    CLEAR     63  55  77 S5        29.79S
$$

NDZ022-023-025-028>030-036>039-047>053-260600-
SOUTHEAST NORTH DAKOTA

CITY           SKY/WX    TMP DP  RH WIND       PRES   REMARKS
FARGO          CLEAR     62  56  80 CALM      29.81S
JAMESTOWN      CLEAR     61  56  83 SE5       29.82S
$$



USA.gov is the U.S. government's official web portal to all federal, state and local government web resources and services.